Regional Weather Roundup
Issued by NWS

Home | Current Version | Previous Version | Graphics & Text | Print | Product List | Glossary On
Versions: 1 2 3 4 5 6 7 8 9 10 11 12 13 14 15 16 17 18 19 20 21 22 23 24 25 26 27 28 29 30 31 32 33 34 35 36 37 38 39 40 41 42 43 44 45 46 47 48 49 50
000
ASUS43 KMPX 011401
RWRMN
WEATHER ROUNDUP FOR MINNESOTA
NATIONAL WEATHER SERVICE TWIN CITIES/CHANHASSEN MN
900 AM CDT WED JUL 01 2015


NOTE: "FAIR" INDICATES FEW OR NO CLOUDS BELOW 12,000 FEET WITH NO
SIGNIFICANT WEATHER AND/OR OBSTRUCTIONS TO VISIBILITY. N/A MEANS
CURRENT SKY AND/OR WEATHER CONDITIONS ARE NOT AVAILABLE.

MNZ060>063-068>070-011500-
   Twin Cities Metro

CITY           SKY/WX    TMP DP  RH WIND       PRES   REMARKS
TWIN CITIES    CLOUDY    61  50  67 SE6       30.01R
ST PAUL        PTSUNNY   59  50  72 E6        30.01R
CRYSTAL        CLOUDY    62  47  57 E5        30.00R
BLAINE         CLOUDY    61  48  63 E5        30.01R
LAKEVILLE      PTSUNNY   57  52  82 E5        30.00S
EDEN PRAIRIE   CLOUDY    61  50  67 E6        29.99S
SOUTH ST PAUL  PTSUNNY   60  49  66 E5        30.00S
LAKE ELMO      FAIR      59  50  72 CALM      30.03R
$$
MNZ001>005-007-008-013>017-022>024-027-028-011500-
   Northwest Minnesota

CITY           SKY/WX    TMP DP  RH WIND       PRES   REMARKS
BEMIDJI        SUNNY     65  59  78 S6        29.97F
HALLOCK        SUNNY     66  57  72 CALM      29.95R
ROSEAU         SUNNY     66  61  82 S3        29.96S
WARROAD        SUNNY     66  61  82 S3        29.97S
THIEF RVR FALL SUNNY     66  57  72 CALM      29.96S
CROOKSTON      SUNNY     66  61  82 S3        29.95S
FOSSTON        SUNNY     66  59  77 S7        29.97S
DETROIT LAKES  SUNNY     66  61  82 S8        29.98F
MOORHEAD       SUNNY     66  63  88 S6        29.96S
PARK RAPIDS    SUNNY     67  58  72 S8        29.98S
MAHNOMEN       PTSUNNY   66  61  81 SW7       29.97S
$$
MNZ006-009>011-018-025>026-011500-
   North Central Minnesota

CITY           SKY/WX    TMP DP  RH WIND       PRES   REMARKS
BAUDETTE       SUNNY     63  56  78 CALM      29.96F
FLAG ISLAND    SUNNY     66  57  72 CALM      29.96S
INTL FALLS     SUNNY     62  56  80 CALM      29.98F
WASKISH        SUNNY     66  61  82 CALM      29.97F
BIG FORK       SUNNY     64  57  77 S3        29.99F
LONGVILLE      MOSUNNY   63  55  77 S7        30.00R
GRAND RAPIDS   SUNNY     59  54  82 S6        30.01S
CRANE LAKE     SUNNY     57  54  88 S3        30.02S
COOK           SUNNY     61  52  72 SW5       30.01F
WALKER         FAIR      65  57  76 S7        29.98S
$$
MNZ012-019>021-037-011500-
   Northeast Minnesota

CITY           SKY/WX    TMP DP  RH WIND       PRES   REMARKS
DULUTH         MOSUNNY   61  49  64 SW7       30.01F
ELY            SUNNY     57  52  82 SW5       30.01F
HIBBING        SUNNY     58  52  80 SE3       30.01F
EVELETH        SUNNY     57  52  82 CALM      30.03S
DULUTH HARBOR  SUNNY     57  54  88 NE3       30.03F
TWO HARBORS    SUNNY     61  52  72 CALM      30.01S
SILVER BAY     CLOUDY    57  46  67 CALM      30.02S
GRAND MARAIS     N/A     49  45  86 CALM      30.03S
G MARAIS ARPRT SUNNY     59  45  58 SW3       30.04S
$$
MNZ029>031-032-039>041-046>048-054>057-064-011500-
   West Central Minnesota

CITY           SKY/WX    TMP DP  RH WIND       PRES   REMARKS
FERGUS FALLS   PTSUNNY   64  63  94 S7        29.97S
WHEATON        CLOUDY    61  57  88 SE9       29.98S
MORRIS         LGT RAIN  63  59  88 SE8       29.97R
ALEXANDRIA     CLOUDY    61  59  93 SE8       30.00R
ELBOW LAKE     FAIR      62  58  88 SE8       29.97S
WADENA           N/A     63  57  82 S6        29.98S
GLENWOOD       CLOUDY    61  57  88 SE6       30.00R
APPLETON         N/A     63  57  82 E7        29.97R
BENSON         CLOUDY    63  55  77 S5        29.98R
ORTONVILLE     CLOUDY    63  57  82 SE7       29.96S
MADISON        CLOUDY    63  59  88 SE6       29.97R
WILLMAR        FAIR      63  55  77 SE8       30.00R
$$
MNZ033>034-036-042>043-049>051-058-059-011500-
   Central Minnesota

CITY           SKY/WX    TMP DP  RH WIND       PRES   REMARKS
ST CLOUD       CLOUDY    60  52  74 SE5       30.00R
SAUK CENTRE    DRIZZLE   59  55  86 SE6       29.99S
PAYNESVILLE    CLOUDY    58  52  80 E3        30.00R
AITKIN         PTSUNNY   64  54  68 S5        30.00R
PINE RIVER       N/A     64  55  72 S9        30.03R
BRAINERD       MOSUNNY   62  51  67 S8        30.01R
STAPLES        MOSUNNY   64  55  72 S5        29.99S
LONG PRAIRIE   FAIR      59  54  82 SE3       30.00S
LITTLE FALLS   MOSUNNY   63  50  63 SE6         N/A
LITCHFIELD     DRIZZLE   61  55  82 SE9       30.00S
BUFFALO        CLOUDY    60  50  68 CALM      30.01S
MAPLE LAKE     CLOUDY    61  53  74 E5        30.01S
$$
MNZ037-044-045-052-053-011500-
   East Central Minnesota

CITY           SKY/WX    TMP DP  RH WIND       PRES   REMARKS
PRINCETON      PTSUNNY   64  48  55 CALM      30.02R
MORA           MOSUNNY   59  45  58 SE5       30.04R
CAMBRIDGE      PTSUNNY   63  46  55 SE3       30.00S
RUSH CITY      CLOUDY    57  50  76 SE3       30.03R
MOOSE LAKE     MOSUNNY   59  54  82 CALM      30.01R
HINCKLEY       FAIR      61  48  63 SE5       30.02S
CLOQUET        MOSUNNY   59  52  77 S3        30.02S
MCGREGOR       MOSUNNY   61  48  63 S7        30.02S
$$
MNZ071>073-080-081-089-090-097-098-011500-
   Southwest Minnesota

CITY           SKY/WX    TMP DP  RH WIND       PRES   REMARKS
MONTEVIDEO     CLOUDY    63  57  82 S9        29.98S
GRANITE FALLS  CLOUDY    61  55  81 E8        29.99R
CANBY          CLOUDY    61  59  92 SE7       29.97S
MARSHALL       CLOUDY    61  54  77 SE9       29.97
REDWOOD FALLS  CLOUDY    61  56  83 E6        29.99R
OLIVIA         CLOUDY    57  52  82 E7        29.98R
PIPESTONE      LGT RAIN  63  59  88 SE7       29.95S
WINDOM         DRIZZLE   61  55  82 E6        29.99R
WORTHINGTON    CLOUDY    63  55  77 E7        29.96F
JACKSON        CLOUDY    61  55  82 E9        29.98R
TRACY          LGT RAIN  61  59  95 E7        29.98R
SLAYTON        LGT RAIN  60  59  97 CALM      29.97F
$$
MNZ065>067-074>077-082>085-091>093-011500-
   South Central Minnesota

CITY           SKY/WX    TMP DP  RH WIND       PRES   REMARKS
MANKATO        CLOUDY    61  52  72 E9        29.99R
NEW ULM        LGT RAIN  61  55  82 E5        29.99R
ST JAMES       LGT RAIN  61  57  88 E3        30.00R
FAIRMONT       PTSUNNY   61  54  77 E7        29.98R
GLENCOE        LGT RAIN  60  55  84 E6        29.99S
FARIBAULT      CLOUDY    59  52  77 SE5       30.01R
OWATONNA       PTSUNNY   61  52  72 SE5       30.00R
WASECA         PTSUNNY   59  52  77 E7        30.01R
ALBERT LEA     MOSUNNY   61  54  77 E7        29.99S
$$
MNZ078>079-086>088-094>096-011500-
   Southeast Minnesota

CITY           SKY/WX    TMP DP  RH WIND       PRES   REMARKS
ROCHESTER      MOSUNNY   59  51  75 E9        30.01S
RED WING       PTSUNNY   59  50  72 E5        30.00S
STANTON        PTSUNNY   59  52  77 CALM      29.99R
DODGE CENTER   MOSUNNY   57  52  82 SE7       30.00S
WINONA         MOSUNNY   59  50  72 SE7       30.01S
AUSTIN         MOSUNNY   61  54  77 E8        29.99S
PRESTON        SUNNY     57  50  77 E7        30.01S
$$
ABBREVIATIONS USED IN REMARKS
   TC - TEMPERATURES IN CELSIUS
  WCI - WIND CHILL INDEX
   HX - HEAT INDEX
  VSB - VISIBILITY
$$


USA.gov is the U.S. government's official web portal to all federal, state and local government web resources and services.